Location: Mahannah Oil Field
(37.4664°N, 96.6003°W)
Time: 21:26:15
(UTC+00:00)

Courier 1B Rocket - Pass Details

Date: 28 January 2021
Orbit: 920 x 1202 km, 28.2° (Epoch: 08 March)

Event Time Altitude Azimuth Distance (km) Brightness Sun altitude
Exits shadow 12:31:26 - 242° (WSW) 3,005 7.1 -12.4°
Reaches altitude 10° 12:32:26 10° 238° (WSW) 2,683 6.9 -12.2°
Maximum altitude 12:38:17 37° 173° (S) 1,511 6.2 -11.1°
Drops below altitude 10° 12:44:32 10° 109° (ESE) 2,856 9.1 -9.9°
Sets 12:47:33 0° 102° (ESE) 3,859 10.5 -9.3°
